Weather History for Oxford, NC

Change the Weather History Date:

Saturday, June 29, 2013

  Actual Average (KTDF) Record (KTDF)
Temperature  
Mean Temperature 75 °F -  
Max Temperature 82 °F 88 °F 100 °F (2012)
Min Temperature 68 °F 62 °F 54 °F (1964)
Cooling Degree Days 10    
Growing Degree Days 25 (Base 50)    
Moisture  
Dew Point 69 °F    
Average Humidity 82    
Maximum Humidity 95    
Minimum Humidity 60    
Precipitation  
Precipitation 0.30 in - - ()
Sea Level Pressure  
Sea Level Pressure 29.68 in    
Wind  
Wind Speed 7 mph (SSW)    
Max Wind Speed 15 mph    
Max Gust Speed 23 mph    
Visibility 9 miles    
Events Rain    
Averages and records for this station are not official NWS values.
T = Trace of Precipitation, MM = Missing Value Source: NWS Daily Summary

Daily Weather History Graph

Daily Weather History Graph

Search for Another Location

Airport:

Trip Planner

Search our weather history database for the weather conditions in past years. The results will help you decide how hot, cold, wet, or windy it might be!

Date:

Astronomy

Jun. 29, 2013 Rise Set
Actual Time 5:59 AM EDT 8:35 PM EDT
Civil Twilight 5:28 AM EDT 9:06 PM EDT
Nautical Twilight 4:51 AM EDT 9:44 PM EDT
Astronomical Twilight 4:08 AM EDT 10:26 PM EDT
Moon 12:15 AM EDT (6/29) 12:55 PM EDT (6/29)
Length of Visible Light 15h 37m
Length of Day
14h 36m
Waning Gibbous, 56% of the Moon is Illuminated
Jun 29
Waning Gibbous
Jun 30
Last Quarter
Jul 8
New
Jul 15
First Quarter
Jul 22
Full

Hourly Weather History & Observations

Time (EDT) Temp. Heat Index Dew Point Humidity Pressure Visibility Wind Dir Wind Speed Gust Speed Precip Events Conditions
12:15 AM 71.8 °F - 68.7 °F 90% 29.69 in 7.0 mi SW 15.0 mph 23.0 mph 0.04 in Rain Heavy Rain
12:35 AM 71.4 °F - 68.2 °F 89% 29.68 in 7.0 mi SW 8.1 mph - 0.10 in Rain Rain
12:55 AM 70.7 °F - 67.5 °F 89% 29.66 in 5.0 mi WSW 3.5 mph - 0.18 in Rain Heavy Rain
1:15 AM 70.2 °F - 67.3 °F 91% 29.66 in 5.0 mi SW 8.1 mph - 0.06 in Rain Rain
1:35 AM 69.8 °F - 67.5 °F 92% 29.65 in 7.0 mi South 3.5 mph - 0.09 in Rain Rain
1:55 AM 69.8 °F - 67.6 °F 93% 29.64 in 7.0 mi SSE 6.9 mph - 0.11 in Rain Rain
2:15 AM 69.4 °F - 67.5 °F 93% 29.64 in 7.0 mi South 6.9 mph - 0.01 in   Mostly Cloudy
2:35 AM 69.3 °F - 67.5 °F 94% 29.63 in 7.0 mi South 4.6 mph - 0.01 in Rain Light Rain
2:55 AM 69.1 °F - 67.3 °F 94% 29.62 in 7.0 mi SW 5.8 mph - 0.01 in   Clear
3:15 AM 69.3 °F - 67.5 °F 94% 29.61 in 7.0 mi SW 4.6 mph - N/A   Mostly Cloudy
3:35 AM 69.4 °F - 67.8 °F 95% 29.61 in 7.0 mi South 8.1 mph - N/A   Overcast
3:55 AM 69.3 °F - 67.6 °F 95% 29.62 in 7.0 mi SSW 6.9 mph - N/A   Overcast
4:15 AM 69.1 °F - 67.5 °F 95% 29.63 in 7.0 mi SSW 9.2 mph - N/A   Overcast
4:35 AM 69.1 °F - 67.3 °F 94% 29.63 in 7.0 mi SSW 5.8 mph - N/A   Overcast
4:55 AM 68.9 °F - 67.1 °F 94% 29.63 in 7.0 mi SSW 4.6 mph - N/A   Scattered Clouds
5:15 AM 68.9 °F - 67.1 °F 94% 29.64 in 7.0 mi SSW 4.6 mph - N/A   Scattered Clouds
5:35 AM 68.9 °F - 67.3 °F 95% 29.64 in 7.0 mi SSW 6.9 mph - N/A   Overcast
5:55 AM 69.1 °F - 67.5 °F 95% 29.65 in 7.0 mi SSW 6.9 mph - N/A   Overcast
6:15 AM 69.1 °F - 67.5 °F 95% 29.65 in 7.0 mi SSW 5.8 mph - N/A   Overcast
6:35 AM 69.1 °F - 67.5 °F 95% 29.66 in 7.0 mi SW 6.9 mph - N/A   Overcast
6:55 AM 69.1 °F - 67.3 °F 94% 29.67 in 7.0 mi SW 5.8 mph - N/A   Overcast
7:15 AM 69.3 °F - 67.5 °F 94% 29.67 in 7.0 mi SSW 5.8 mph - N/A   Overcast
7:35 AM 69.3 °F - 67.5 °F 94% 29.68 in 7.0 mi SW 6.9 mph - N/A   Overcast
7:55 AM 69.4 °F - 67.6 °F 94% 29.68 in 7.0 mi SW 5.8 mph - N/A   Overcast
8:15 AM 69.8 °F - 67.8 °F 93% 29.68 in 7.0 mi SSW 4.6 mph - N/A   Overcast
8:35 AM 70.3 °F - 68.4 °F 93% 29.68 in 10.0 mi SSW 5.8 mph - N/A   Mostly Cloudy
8:55 AM 70.7 °F - 68.4 °F 92% 29.69 in 10.0 mi SSW 8.1 mph - N/A   Mostly Cloudy
9:15 AM 71.4 °F - 68.9 °F 92% 29.69 in 10.0 mi SW 6.9 mph - N/A   Mostly Cloudy
9:35 AM 72.1 °F - 69.1 °F 90% 29.69 in 10.0 mi SW 9.2 mph - N/A   Mostly Cloudy
9:55 AM 73.2 °F - 69.4 °F 88% 29.69 in 10.0 mi SW 9.2 mph - N/A   Mostly Cloudy
10:15 AM 73.8 °F - 69.3 °F 86% 29.68 in 10.0 mi SSW 6.9 mph - N/A   Mostly Cloudy
10:35 AM 74.3 °F - 69.3 °F 84% 29.68 in 10.0 mi SSW 5.8 mph - N/A   Mostly Cloudy
10:55 AM 75.6 °F - 70.0 °F 83% 29.68 in 10.0 mi SW 5.8 mph - N/A   Mostly Cloudy
11:15 AM 77.0 °F - 70.3 °F 80% 29.69 in 10.0 mi WSW 4.6 mph - N/A   Scattered Clouds
11:35 AM 77.9 °F - 69.3 °F 75% 29.69 in 10.0 mi SW 3.5 mph - N/A   Scattered Clouds
11:55 AM 78.8 °F - 69.8 °F 74% 29.69 in 10.0 mi SW 4.6 mph - N/A   Clear
12:15 PM 80.1 °F 82.9 °F 69.1 °F 69% 29.69 in 10.0 mi SSW 3.5 mph - N/A   Clear
12:35 PM 80.8 °F 83.9 °F 69.3 °F 68% 29.69 in 10.0 mi South 5.8 mph - N/A   Scattered Clouds
12:55 PM 80.8 °F 84.1 °F 69.6 °F 69% 29.69 in 10.0 mi South 5.8 mph - N/A   Scattered Clouds
1:15 PM 80.6 °F 83.9 °F 70.0 °F 70% 29.69 in 10.0 mi SSW 6.9 mph - N/A   Scattered Clouds
1:35 PM 80.6 °F 83.8 °F 69.4 °F 69% 29.68 in 10.0 mi South 6.9 mph - N/A   Clear
1:55 PM 80.6 °F 83.9 °F 69.8 °F 70% 29.68 in 10.0 mi SSE 5.8 mph - N/A   Clear
2:15 PM 80.6 °F 84.1 °F 70.3 °F 71% 29.68 in 10.0 mi SSE 8.1 mph - N/A   Clear
2:35 PM 80.8 °F 83.9 °F 69.4 °F 68% 29.69 in 10.0 mi South 6.9 mph - N/A   Clear
2:55 PM 81.0 °F 84.1 °F 69.3 °F 67% 29.68 in 10.0 mi South 8.1 mph - N/A   Clear
3:15 PM 81.1 °F 84.0 °F 68.2 °F 65% 29.68 in 10.0 mi South 9.2 mph - N/A   Clear
3:35 PM 81.1 °F 84.4 °F 69.1 °F 67% 29.67 in 10.0 mi South 8.1 mph - N/A   Clear
3:55 PM 81.1 °F 84.2 °F 68.9 °F 66% 29.68 in 10.0 mi South 5.8 mph - N/A   Clear
4:15 PM 81.5 °F 84.2 °F 67.8 °F 63% 29.68 in 10.0 mi SSW 6.9 mph - N/A   Clear
4:35 PM 81.5 °F 84.2 °F 68.0 °F 63% 29.68 in 10.0 mi South 8.1 mph - N/A   Clear
4:55 PM 80.8 °F 83.8 °F 68.9 °F 67% 29.67 in 10.0 mi South 5.8 mph - N/A   Clear
5:15 PM 80.6 °F 83.6 °F 69.1 °F 68% 29.67 in 10.0 mi South 8.1 mph - N/A   Clear
5:35 PM 81.1 °F 84.0 °F 68.2 °F 65% 29.68 in 10.0 mi SSW 8.1 mph - N/A   Clear
5:55 PM 82.4 °F 85.0 °F 67.3 °F 60% 29.68 in 10.0 mi South 9.2 mph - N/A   Clear
6:15 PM 82.2 °F 85.1 °F 68.2 °F 62% 29.68 in 10.0 mi South 6.9 mph - N/A   Clear
6:35 PM 81.7 °F 84.9 °F 68.7 °F 65% 29.69 in 10.0 mi South 5.8 mph - N/A   Clear
6:55 PM 81.0 °F 84.1 °F 69.1 °F 67% 29.69 in 10.0 mi South 6.9 mph - N/A   Clear
7:15 PM 81.0 °F 84.2 °F 69.6 °F 68% 29.69 in 10.0 mi SSW 5.8 mph - N/A   Clear
7:35 PM 80.6 °F 83.9 °F 70.2 °F 70% 29.69 in 10.0 mi South 4.6 mph - N/A   Clear
7:55 PM 80.2 °F 83.5 °F 70.2 °F 71% 29.69 in 10.0 mi South 4.6 mph - N/A   Clear
8:15 PM 79.3 °F - 70.7 °F 75% 29.69 in 10.0 mi South 4.6 mph - N/A   Clear
8:35 PM 78.8 °F - 71.2 °F 78% 29.70 in 10.0 mi South 3.5 mph - N/A   Clear
8:55 PM 77.9 °F - 71.6 °F 81% 29.70 in 10.0 mi South 4.6 mph - N/A   Scattered Clouds
9:15 PM 77.2 °F - 71.6 °F 83% 29.71 in 7.0 mi South 4.6 mph - N/A   Clear
9:35 PM 76.5 °F - 71.8 °F 85% 29.71 in 10.0 mi South 4.6 mph - N/A   Clear
9:55 PM 76.3 °F - 70.9 °F 83% 29.72 in 10.0 mi South 5.8 mph - N/A   Clear
10:15 PM 76.1 °F - 70.9 °F 84% 29.72 in 10.0 mi South 4.6 mph - N/A   Clear
10:35 PM 75.6 °F - 71.1 °F 86% 29.73 in 10.0 mi South 5.8 mph - N/A   Clear
10:55 PM 75.2 °F - 70.9 °F 86% 29.74 in 10.0 mi South 3.5 mph - N/A   Clear
11:15 PM 75.2 °F - 70.9 °F 86% 29.74 in 10.0 mi South 4.6 mph - N/A   Clear
11:35 PM 74.7 °F - 70.9 °F 88% 29.74 in 10.0 mi South 5.8 mph - N/A   Clear
11:55 PM 74.3 °F - 70.9 °F 89% 29.75 in 10.0 mi South 5.8 mph - N/A   Clear